CW9804 Weather Reports


Display with metric or nautical units.
time (UTC)temp
F
wind
direction
speed
MPH
gust
MPH
rain 1hr
in
rain 24hr
in
rain mn
in
humidity
%
barometer
mb
20260510134910 75 251 5.0 8.0 0.00 0.00 0.00 48 1012.3
20260510133410 76 294 5.0 10.0 0.00 0.00 0.00 47 1012.5
20260510131910 76 150 3.0 8.0 0.00 0.00 0.00 49 1012.6
20260510130410 75 269 4.0 10.0 0.00 0.00 0.00 49 1012.9
20260510124910 74 281 3.0 9.0 0.00 0.00 0.00 48 1013.1
20260510123410 73 175 2.0 4.0 0.00 0.00 0.00 53 1013.4
20260510121910 72 292 3.0 7.0 0.00 0.00 0.00 55 1013.6
20260510120410 72 355 3.0 8.0 0.00 0.00 0.00 59 1013.8
20260510114911 70 255 2.0 6.0 0.00 0.00 0.00 60 1013.9
20260510113410 70 13 5.0 7.0 0.00 0.00 0.00 61 1014.2
20260510111910 71 306 5.0 8.0 0.00 0.00 0.00 61 1014.2
20260510110410 69 5 1.0 4.0 0.00 0.00 0.00 63 1014.4
20260510104910 68 73 2.0 5.0 0.00 0.00 0.00 65 1014.8
20260510103410 67 31 0.0 2.0 0.00 0.00 0.00 66 1014.9
20260510101910 67 72 0.0 3.0 0.00 0.00 0.00 67 1015.0
20260510100410 67 304 3.0 6.0 0.00 0.00 0.00 67 1015.1
20260510091912 64 169 1.0 4.0 0.00 0.00 0.00 74 1015.7
20260510090411 63 94 3.0 4.0 0.00 0.00 0.00 75 1015.8
20260510084912 62 67 2.0 4.0 0.00 0.00 0.00 78 1015.9
20260510083412 61 53 1.0 3.0 0.00 0.00 0.00 78 1015.9
20260510081911 61 133 1.0 4.0 0.00 0.00 0.00 78 1016.1
20260510080411 60 328 2.0 3.0 0.00 0.00 0.00 80 1016.3
20260510074911 59 49 1.0 4.0 0.00 0.00 0.00 80 1016.3
20260510073411 58 316 1.0 3.0 0.00 0.00 0.00 82 1016.5
20260510071910 57 355 0.0 2.0 0.00 0.00 0.00 83 1016.7
20260510070410 57 327 0.0 2.0 0.00 0.00 0.00 84 1016.7
20260510064910 56 50 1.0 3.0 0.00 0.00 0.00 86 1016.7
20260510063410 55 67 1.0 3.0 0.00 0.00 0.00 87 1016.8
20260510061910 54 59 2.0 3.0 0.00 0.00 0.00 88 1016.9
20260510060410 53 44 1.0 3.0 0.00 0.00 0.00 90 1016.9
20260510054910 52 125 1.0 2.0 0.00 0.00 0.00 91 1017.1
20260510053409 52 156 1.0 2.0 0.00 0.00 0.00 91 1017.0
20260510051909 51 209 0.0 0.0 0.00 0.00 0.00 92 1017.0
20260510050415 51 215 0.0 1.0 0.00 0.00 0.00 92 1016.9
20260510044915 50 207 0.0 0.0 0.00 0.00 0.00 92 1016.9
20260510043415 50 207 0.0 0.0 0.00 0.00 0.00 92 1017.0
20260510041915 50 225 0.0 0.0 0.00 0.00 0.00 93 1017.0
20260510040415 49 225 0.0 0.0 0.00 0.00 0.00 93 1017.0
20260510034914 49 225 0.0 0.0 0.00 0.00 0.00 92 1017.0
20260510033414 50 225 0.0 0.0 0.00 0.00 0.00 92 1017.1
20260510031914 50 225 0.0 0.0 0.00 0.00 0.00 93 1017.1
20260510030414 50 225 0.0 1.0 0.00 0.00 0.00 93 1017.1
20260510024914 50 225 0.0 3.0 0.00 0.00 0.00 93 1017.1
20260510023414 50 225 1.0 3.0 0.00 0.00 0.00 92 1017.2
20260510021914 50 225 2.0 3.0 0.00 0.00 0.00 93 1017.3
20260510020413 51 276 1.0 3.0 0.00 0.00 0.00 92 1017.3
20260510014913 51 229 1.0 2.0 0.00 0.00 0.00 93 1017.4
20260510013413 51 229 0.0 0.0 0.00 0.00 0.00 92 1017.5
20260510011913 51 229 0.0 0.0 0.00 0.00 0.00 92 1017.5
20260510010413 52 229 0.0 0.0 0.00 0.00 0.00 92 1017.6
20260510004913 52 229 0.0 0.0 0.00 0.00 0.00 91 1017.8
20260510003413 51 229 0.0 1.0 0.00 0.00 0.00 88 1017.8
20260510001913 52 229 0.0 1.0 0.00 0.00 0.00 87 1017.9
20260509200412 59 63 3.0 6.0 0.00 0.00 0.00 73 1019.3
20260509194912 59 54 3.0 4.0 0.00 0.00 0.00 73 1019.3
20260509191911 60 78 3.0 5.0 0.00 0.00 0.00 71 1018.7
20260509190411 61 74 2.0 5.0 0.00 0.00 0.00 70 1018.6
20260509184911 61 140 2.0 4.0 0.00 0.00 0.00 69 1018.1
20260509183411 62 150 3.0 7.0 0.00 0.00 0.00 67 1017.8
20260509181911 62 71 1.0 8.0 0.00 0.00 0.00 66 1017.7
20260509180411 63 85 2.0 8.0 0.00 0.00 0.00 65 1017.3
20260509174911 64 87 3.0 9.0 0.00 0.00 0.00 63 1017.6
20260509173411 65 59 7.0 12.0 0.00 0.00 0.00 60 1016.6
20260509171911 69 41 7.0 14.0 0.00 0.00 0.00 54 1016.4
20260509170411 73 157 1.0 2.0 0.00 0.00 0.00 48 1016.1
20260509164911 73 184 0.0 1.0 0.00 0.00 0.00 49 1015.7
20260509163410 75 223 3.0 6.0 0.00 0.00 0.00 47 1015.7
20260509161910 76 265 3.0 9.0 0.00 0.00 0.00 46 1016.0